Location: Newark
(22.3060°N, 114.2134°E)
Time: 00:59:37
(UTC+00:00)

Explorer 11/Cluster Stage 4 - Pass Details

Date: 28 July 2021
Orbit: 467 x 1256 km, 28.8° (Epoch: 27 September)

Event Time Altitude Azimuth Distance (km) Brightness Sun altitude
Rises 03:46:13 0° 266° (W) 4,190 10.2 79.3°
Reaches altitude 10° 03:49:17 10° 270° (W) 3,200 9.7 80.0°
Maximum altitude 03:57:16 59° 349° (NNW) 1,302 8.8 81.7°
Drops below altitude 10° 04:04:13 10° 68° (ENE) 2,796 9.6 83.2°
Sets 04:06:44 0° 72° (ENE) 3,634 10.1 83.7°
